CANX-5

Last updated on Sun Jun 21 2026 00:03:50 GMT+0000 (Coordinated Universal Time)

1 40056U 14034D 26171.46025957 .00000655 00000+0 91270-4 0 9990 2 40056 98.3120 46.9372 0012919 7.0403 353.0987 14.81286790635822
UTC large
Height (km)
Speed (km/s)
/
Latitude / Longitude
Inclination (degrees)
Orbital Period (minutes)
Azimuth
Elevation
Range (km)
Doppler Factor

Next 0 passes for location: London (51.5072 / 0.1276)

No passes found over London.
CANX-5